UAE8VR VRMM-WSSS

Flight info

Callsign UAE8VR
Flight time N/A
Altitude 33000
Route TENIV1A TENIV P756 OBDAL/N0496F350 P756 OKABU M300 SALAX Y340 BATAR A464 ARAMA ARAMA1A
Aircraft B77W/H-SDE1E2E3FGHIJ2J3J4J5M1RWXY/LB1D1

Departure

Time 2026-05-01 14:22
Airport Velana International Airport (VRMM)

Arrival

Time N/A
Airport Singapore Changi Airport (WSSS)
Time Latitude Longitude Altitude Speed Heading
2026-05-01 13:41 4.18213 73.52772 17 ft 0 kts 269°
2026-05-01 14:14 4.18213 73.52774 -6 ft 2 kts 269°
2026-05-01 14:14 4.18213 73.52795 3 ft 3 kts 269°
2026-05-01 14:14 4.18213 73.52817 21 ft 3 kts 269°
2026-05-01 14:15 4.18213 73.52836 17 ft 3 kts 268°
2026-05-01 14:15 4.18215 73.52849 18 ft 3 kts 242°
2026-05-01 14:15 4.18226 73.52861 22 ft 3 kts 189°
2026-05-01 14:15 4.18247 73.52862 21 ft 3 kts 177°
2026-05-01 14:16 4.18255 73.52861 20 ft 0 kts 179°
2026-05-01 14:18 4.18250 73.52862 21 ft 2 kts 179°
2026-05-01 14:19 4.18218 73.52862 18 ft 7 kts 179°
2026-05-01 14:19 4.18158 73.52862 17 ft 8 kts 180°
2026-05-01 14:19 4.18113 73.52872 17 ft 7 kts 139°
2026-05-01 14:19 4.18110 73.52919 17 ft 8 kts 60°
2026-05-01 14:20 4.18159 73.52932 17 ft 9 kts 356°
2026-05-01 14:20 4.18198 73.53002 17 ft 9 kts 91°
2026-05-01 14:20 4.18196 73.53075 17 ft 10 kts 92°
2026-05-01 14:21 4.18218 73.53108 17 ft 6 kts
2026-05-01 14:21 4.18260 73.53105 17 ft 10 kts 357°
2026-05-01 14:21 4.18555 73.53102 17 ft 84 kts
2026-05-01 14:22 4.20696 73.53100 189 ft 199 kts 357°
2026-05-01 14:22 4.22054 73.53096 970 ft 194 kts 358°
2026-05-01 14:22 4.23414 73.53097 1695 ft 198 kts 359°
2026-05-01 14:22 4.24850 73.53105 2022 ft 217 kts 358°
2026-05-01 14:23 4.26434 73.53100 2373 ft 236 kts 358°
2026-05-01 14:23 4.28107 73.53085 3014 ft 242 kts 358°
2026-05-01 14:23 4.29814 73.53068 3715 ft 247 kts 358°
2026-05-01 14:23 4.31539 73.53061 4470 ft 249 kts 359°
2026-05-01 14:24 4.33282 73.53069 5199 ft 252 kts 360°
2026-05-01 14:24 4.35086 73.53063 5660 ft 269 kts 359°
2026-05-01 14:24 4.36996 73.53059 6241 ft 277 kts 359°
2026-05-01 14:24 4.38907 73.53151 6931 ft 276 kts 15°
2026-05-01 14:25 4.40613 73.54030 7533 ft 281 kts 43°
2026-05-01 14:25 4.41770 73.55603 8240 ft 283 kts 65°
2026-05-01 14:25 4.42274 73.57494 8953 ft 285 kts 87°
2026-05-01 14:25 4.42262 73.59482 9634 ft 288 kts 91°
2026-05-01 14:26 4.42230 73.61476 10253 ft 293 kts 90°
2026-05-01 14:26 4.42201 73.65851 10743 ft 338 kts 90°
2026-05-01 14:26 4.42196 73.68294 10923 ft 362 kts 90°
2026-05-01 14:27 4.42195 73.70870 11389 ft 375 kts 90°
2026-05-01 14:27 4.42195 73.73504 12081 ft 382 kts 90°
2026-05-01 14:27 4.42192 73.76181 12886 ft 387 kts 90°
2026-05-01 14:28 4.41546 73.81585 14353 ft 396 kts 100°
2026-05-01 14:28 4.41021 73.84309 15071 ft 400 kts 101°
2026-05-01 14:28 4.40481 73.87057 15786 ft 404 kts 101°
2026-05-01 14:28 4.39951 73.89835 16483 ft 408 kts 100°
2026-05-01 14:29 4.39433 73.92651 17168 ft 413 kts 100°
2026-05-01 14:29 4.38926 73.95500 17826 ft 418 kts 99°
2026-05-01 14:30 4.37415 74.04225 19644 ft 429 kts 100°
2026-05-01 14:30 4.36907 74.07184 20235 ft 432 kts 100°
2026-05-01 14:30 4.36395 74.10162 20814 ft 436 kts 100°
2026-05-01 14:31 4.35357 74.16200 21932 ft 444 kts 100°
2026-05-01 14:31 4.34830 74.19257 22476 ft 447 kts 100°
2026-05-01 14:31 4.34299 74.22341 23032 ft 451 kts 100°
2026-05-01 14:31 4.33765 74.25442 23553 ft 454 kts 100°
2026-05-01 14:32 4.33225 74.28574 23991 ft 457 kts 100°
2026-05-01 14:32 4.32683 74.31719 24437 ft 460 kts 100°
2026-05-01 14:32 4.32137 74.34884 24890 ft 462 kts 100°
2026-05-01 14:32 4.31588 74.38065 25341 ft 464 kts 100°
2026-05-01 14:33 4.31038 74.41257 25771 ft 467 kts 100°
2026-05-01 14:33 4.30484 74.44469 26208 ft 469 kts 100°
2026-05-01 14:33 4.29926 74.47698 26615 ft 472 kts 100°
2026-05-01 14:33 4.29373 74.50901 27015 ft 474 kts 100°
2026-05-01 14:34 4.28802 74.54210 27416 ft 477 kts 100°
2026-05-01 14:34 4.28243 74.57444 27807 ft 479 kts 100°
2026-05-01 14:34 4.27674 74.60741 28184 ft 481 kts 99°
2026-05-01 14:34 4.27102 74.64052 28545 ft 484 kts 99°
2026-05-01 14:35 4.26528 74.67379 28891 ft 486 kts 99°
2026-05-01 14:35 4.25950 74.70720 29210 ft 488 kts 99°
2026-05-01 14:35 4.25370 74.74080 29520 ft 490 kts 99°
2026-05-01 14:35 4.24787 74.77453 29856 ft 491 kts 99°
2026-05-01 14:36 4.24205 74.80817 30240 ft 490 kts 99°
2026-05-01 14:36 4.23623 74.84183 30593 ft 490 kts 99°
2026-05-01 14:36 4.23042 74.87545 30904 ft 491 kts 100°
2026-05-01 14:36 4.22459 74.90914 31212 ft 491 kts 100°
2026-05-01 14:37 4.21875 74.94284 31541 ft 491 kts 100°
2026-05-01 14:37 4.21291 74.97661 31871 ft 492 kts 100°
2026-05-01 14:37 4.20707 75.01035 32199 ft 492 kts 100°
2026-05-01 14:37 4.20122 75.04407 32529 ft 492 kts 100°
2026-05-01 14:38 4.19536 75.07790 32820 ft 493 kts 100°
2026-05-01 14:38 4.18354 75.14608 32893 ft 500 kts 100°
2026-05-01 14:39 4.17159 75.21522 32874 ft 508 kts 100°